| time (UTC) | temp F | wind direction | speed knots | gust knots | rain 1hr in | rain 24hr in | rain mn in | humidity % | barometer mb |
| 20260503230016 | 49 | 299 | 0.9 | 8.7 | 0.00 | 0.00 | 0.00 | 32 | 1022.3 |
| 20260503225017 | 49 | 328 | 1.7 | 8.7 | 0.00 | 0.00 | 0.00 | 31 | 1022.3 |
| 20260503224016 | 49 | 295 | 3.5 | 8.7 | 0.00 | 0.00 | 0.00 | 31 | 1022.3 |
| 20260503223017 | 51 | 180 | 0.0 | 7.8 | 0.00 | 0.00 | 0.00 | 29 | 1022.2 |
| 20260503222016 | 49 | 289 | 1.7 | 6.1 | 0.00 | 0.00 | 0.00 | 30 | 1022.2 |
| 20260503221018 | 50 | 306 | 2.6 | 6.1 | 0.00 | 0.00 | 0.00 | 29 | 1022.2 |
| 20260503220017 | 51 | 270 | 4.3 | 8.7 | 0.00 | 0.00 | 0.00 | 28 | 1022.1 |
| 20260503215017 | 52 | 265 | 0.0 | 6.1 | 0.00 | 0.00 | 0.00 | 27 | 1022.1 |
| 20260503214017 | 52 | 276 | 0.9 | 6.1 | 0.00 | 0.00 | 0.00 | 28 | 1022.1 |
| 20260503213017 | 50 | 307 | 1.7 | 6.1 | 0.00 | 0.00 | 0.00 | 29 | 1022.1 |
| 20260503212017 | 52 | 180 | 0.0 | 10.4 | 0.00 | 0.00 | 0.00 | 28 | 1022.2 |
| 20260503211017 | 53 | 297 | 1.7 | 7.0 | 0.00 | 0.00 | 0.00 | 28 | 1022.1 |
| 20260503210016 | 51 | 296 | 3.5 | 9.6 | 0.00 | 0.00 | 0.00 | 28 | 1022.1 |
| 20260503205017 | 51 | 293 | 3.5 | 11.3 | 0.00 | 0.00 | 0.00 | 28 | 1022.1 |
| 20260503204016 | 52 | 302 | 0.9 | 8.7 | 0.00 | 0.00 | 0.00 | 28 | 1022.2 |
| 20260503203019 | 51 | 273 | 1.7 | 7.8 | 0.00 | 0.00 | 0.00 | 28 | 1022.2 |
| 20260503202016 | 53 | 285 | 1.7 | 7.0 | 0.00 | 0.00 | 0.00 | 28 | 1022.3 |
| 20260503201021 | 51 | 272 | 0.9 | 11.3 | 0.00 | 0.00 | 0.00 | 27 | 1022.5 |
| 20260503200016 | 49 | 288 | 5.2 | 8.7 | 0.00 | 0.00 | 0.00 | 29 | 1022.8 |
| 20260503195017 | 50 | 287 | 2.6 | 12.2 | 0.00 | 0.00 | 0.00 | 30 | 1022.5 |
| 20260503194019 | 48 | 273 | 3.5 | 13.0 | 0.00 | 0.00 | 0.00 | 29 | 1022.8 |
| 20260503193019 | 51 | 272 | 2.6 | 8.7 | 0.00 | 0.00 | 0.00 | 32 | 1022.9 |
| 20260503192016 | 48 | 253 | 1.7 | 12.2 | 0.00 | 0.00 | 0.00 | 33 | 1023.0 |
| 20260503191017 | 48 | 258 | 3.5 | 9.6 | 0.00 | 0.00 | 0.00 | 33 | 1023.0 |
| 20260503190016 | 48 | 279 | 3.5 | 9.6 | 0.00 | 0.00 | 0.00 | 32 | 1023.0 |
| 20260503185017 | 50 | 306 | 1.7 | 7.8 | 0.00 | 0.00 | 0.00 | 31 | 1023.0 |
| 20260503184016 | 50 | 312 | 1.7 | 9.6 | 0.00 | 0.00 | 0.00 | 32 | 1023.1 |
| 20260503183016 | 49 | 268 | 2.6 | 13.0 | 0.00 | 0.00 | 0.00 | 32 | 1023.4 |
| 20260503182017 | 48 | 316 | 0.9 | 8.7 | 0.00 | 0.00 | 0.00 | 33 | 1023.4 |
| 20260503181022 | 46 | 275 | 2.6 | 8.7 | 0.00 | 0.00 | 0.00 | 34 | 1023.5 |
| 20260503180017 | 47 | 305 | 1.7 | 10.4 | 0.00 | 0.00 | 0.00 | 35 | 1023.3 |
| 20260503175017 | 45 | 259 | 2.6 | 9.6 | 0.00 | 0.00 | 0.00 | 35 | 1023.3 |
| 20260503174017 | 48 | 263 | 0.9 | 11.3 | 0.00 | 0.00 | 0.00 | 32 | 1023.4 |
| 20260503173016 | 48 | 353 | 1.7 | 6.1 | 0.00 | 0.00 | 0.00 | 34 | 1023.3 |
| 20260503172017 | 46 | 264 | 1.7 | 6.1 | 0.00 | 0.00 | 0.00 | 36 | 1023.5 |
| 20260503171017 | 46 | 300 | 1.7 | 11.3 | 0.00 | 0.00 | 0.00 | 36 | 1023.4 |
| 20260503131016 | 33 | 316 | 6.1 | 13.0 | 0.00 | 0.00 | 0.00 | 64 | 1022.5 |
| 20260503081016 | 27 | 263 | 0.9 | 8.7 | 0.00 | 0.00 | 0.00 | 81 | 1019.8 |
| 20260503072018 | 28 | 328 | 1.7 | 11.3 | 0.00 | 0.00 | 0.00 | 79 | 1019.4 |
| 20260503071017 | 28 | 0.0 | 6.1 | 0.00 | 0.00 | 0.00 | 79 | 1019.4 | |
| 20260503055016 | 30 | 281 | 0.9 | 7.0 | 0.00 | 0.00 | 0.00 | 79 | 1019.9 |
| 20260503054017 | 30 | 288 | 0.9 | 6.1 | 0.00 | 0.00 | 0.00 | 79 | 1019.9 |
| 20260503053016 | 30 | 358 | 0.9 | 7.0 | 0.00 | 0.00 | 0.00 | 79 | 1019.9 |
| 20260503052017 | 31 | 289 | 1.7 | 7.8 | 0.00 | 0.00 | 0.00 | 80 | 1019.9 |
| 20260503051016 | 31 | 329 | 0.9 | 6.1 | 0.00 | 0.00 | 0.00 | 79 | 1019.9 |
| 20260503050016 | 31 | 308 | 0.0 | 4.3 | 0.00 | 0.00 | 0.00 | 80 | 1020.0 |
| 20260503045017 | 31 | 276 | 0.9 | 6.1 | 0.00 | 0.00 | 0.00 | 79 | 1020.0 |
| 20260503044019 | 31 | 247 | 1.7 | 2.6 | 0.00 | 0.00 | 0.00 | 80 | 1020.0 |
| 20260503043016 | 31 | 305 | 0.0 | 6.1 | 0.00 | 0.00 | 0.00 | 79 | 1020.1 |
| 20260503042017 | 32 | 288 | 2.6 | 7.0 | 0.00 | 0.00 | 0.00 | 78 | 1020.1 |
| 20260503041016 | 31 | 303 | 0.0 | 4.3 | 0.00 | 0.00 | 0.00 | 78 | 1020.1 |
| 20260503040017 | 31 | 287 | 1.7 | 8.7 | 0.00 | 0.00 | 0.00 | 78 | 1020.1 |
| 20260503035017 | 32 | 290 | 0.9 | 6.1 | 0.00 | 0.00 | 0.00 | 76 | 1020.2 |
| 20260503034016 | 32 | 303 | 1.7 | 8.7 | 0.00 | 0.00 | 0.00 | 75 | 1020.2 |
| 20260503033018 | 33 | 180 | 0.0 | 6.1 | 0.00 | 0.00 | 0.00 | 74 | 1020.2 |
| 20260503032018 | 33 | 297 | 3.5 | 7.0 | 0.00 | 0.00 | 0.00 | 73 | 1020.1 |
| 20260503031017 | 32 | 304 | 1.7 | 7.0 | 0.00 | 0.00 | 0.00 | 73 | 1020.2 |
| 20260503030016 | 32 | 268 | 0.9 | 7.8 | 0.00 | 0.00 | 0.00 | 72 | 1020.3 |
| 20260503025017 | 33 | 292 | 3.5 | 8.7 | 0.00 | 0.00 | 0.00 | 70 | 1020.4 |
| 20260503024016 | 33 | 180 | 0.0 | 10.4 | 0.00 | 0.00 | 0.00 | 70 | 1020.4 |
| 20260503023016 | 33 | 291 | 0.9 | 3.5 | 0.00 | 0.00 | 0.00 | 68 | 1020.5 |
| 20260503022017 | 33 | 293 | 1.7 | 3.5 | 0.00 | 0.00 | 0.00 | 68 | 1020.4 |
| 20260503021016 | 33 | 287 | 1.7 | 6.1 | 0.00 | 0.00 | 0.00 | 66 | 1020.3 |
| 20260503020017 | 34 | 180 | 0.0 | 7.8 | 0.00 | 0.00 | 0.00 | 66 | 1020.3 |
| 20260503015016 | 33 | 0.0 | 0.0 | 0.00 | 0.00 | 0.00 | 65 | 1020.3 | |
| 20260503014017 | 33 | 180 | 0.0 | 7.0 | 0.00 | 0.00 | 0.00 | 64 | 1020.3 |
| 20260503013017 | 33 | 0.0 | 1.7 | 0.00 | 0.00 | 0.00 | 66 | 1020.2 | |
| 20260503012017 | 34 | 275 | 0.0 | 5.2 | 0.00 | 0.00 | 0.00 | 66 | 1020.3 |
| 20260503011016 | 34 | 318 | 0.0 | 7.0 | 0.00 | 0.00 | 0.00 | 66 | 1020.3 |
| 20260503010016 | 35 | 289 | 1.7 | 7.8 | 0.00 | 0.00 | 0.00 | 64 | 1020.2 |
| 20260503005017 | 35 | 288 | 0.9 | 5.2 | 0.00 | 0.00 | 0.00 | 63 | 1020.1 |
| 20260503004016 | 35 | 279 | 1.7 | 7.8 | 0.00 | 0.00 | 0.00 | 61 | 1019.9 |
| 20260503003017 | 35 | 309 | 0.9 | 7.0 | 0.00 | 0.00 | 0.00 | 61 | 1019.7 |
| 20260503002017 | 35 | 313 | 2.6 | 6.1 | 0.00 | 0.00 | 0.00 | 60 | 1019.6 |
| 20260503001017 | 36 | 259 | 1.7 | 10.4 | 0.00 | 0.00 | 0.00 | 59 | 1019.6 |
| 20260503000017 | 36 | 306 | 0.9 | 11.3 | 0.00 | 0.00 | 0.00 | 59 | 1019.6 |
| 20260502235017 | 36 | 287 | 1.7 | 8.7 | 0.00 | 0.00 | 0.00 | 58 | 1019.6 |
| 20260502234017 | 37 | 299 | 0.0 | 8.7 | 0.00 | 0.00 | 0.00 | 56 | 1019.5 |
| 20260502233016 | 37 | 286 | 2.6 | 7.8 | 0.00 | 0.00 | 0.00 | 54 | 1019.4 |
| 20260502232019 | 37 | 292 | 1.7 | 6.1 | 0.00 | 0.00 | 0.00 | 54 | 1019.3 |
| 20260502231016 | 38 | 310 | 0.9 | 8.7 | 0.00 | 0.00 | 0.00 | 53 | 1019.3 |